Location: El Álamo
(40.2307°N, 3.9945°W)
Time: 04:56:37
(UTC+00:00)

Cosmos 2151 - Pass Details

Date: 19 May 2025
Orbit: 562 x 578 km, 82.5° (Epoch: 23 June)

Event Time Altitude Azimuth Distance (km) Brightness Sun altitude
Rises 20:46:42 0° 345° (NNW) 2,802 7.4 -13.1°
Reaches altitude 10° 20:48:59 10° 338° (NNW) 1,899 6.6 -13.4°
Maximum altitude 20:52:56 42° 268° (W) 830 4.1 -14.0°
Drops below altitude 10° 20:56:52 10° 197° (SSW) 1,886 5.3 -14.5°
Enters shadow 20:57:52 - 193° (SSW) 2,273 5.7 -14.7°
